Hourly Data Report for March 06, 2012

BAGOTVILLE A
QUEBEC

48°20'00.000" N
71°00'00.000" W
159.10 m
7060400
71727
YBG

Download Data

Hourly Data (March 2012)
Hourly Data Report for March 6, 2012
TIME
LST
Temp Definition
°C
Dew Point Definition
°C
Rel Hum Definition
%
Precip. Amount Definition
mm

Wind Dir Definition
10's deg

Wind Spd Definition
km/h
Visibility Definition
km
Stn Press Definition
kPa
Hmdx Definition


Wind Chill Definition


Weather Definition


00:00 -12.6 -16.0 76   27 13 24.1 100.51   -19 Mostly Cloudy
01:00 -12.9 -15.9 78   28 9 24.1 100.62   -18 Mostly Cloudy
02:00 -13.3 -15.9 81   30 6 24.1 100.66   -17 Mostly Cloudy
03:00 -14.8 -17.6 79     0 24.1 100.74     Mostly Cloudy
04:00 -14.0 -16.7 80   32 4 24.1 100.82   -17 Mostly Cloudy
05:00 -17.2 -21.1 72     0 24.1 100.89     Mainly Clear
06:00 -17.5 -20.8 75   27 6 32.2 101.00   -22 Mostly Cloudy
07:00 -18.2 -21.6 75   27 4 40.2 101.09   -21 Mostly Cloudy
08:00 -16.5 -19.6 77   27 4 32.2 101.16   -20 Mainly Clear
09:00 -13.5 -17.7 71   31 4 40.2 101.18   -16 Mainly Clear
10:00 -11.9 -16.7 67   9 9 40.2 101.18   -17 Mainly Clear
11:00 -10.5 -17.0 59   9 7 40.2 101.18   -15 Mainly Clear
12:00 -9.4 -13.4 73   36 7 40.2 101.14   -13 Clear
13:00 -8.0 -15.4 55   9 4 40.2 101.09   -10 Mainly Clear
14:00 -7.2 -13.7 60   10 9 40.2 101.07   -12 Mainly Clear
15:00 -6.5 -14.0 55   10 6 40.2 101.06   -9 Mainly Clear
16:00 -6.3 -14.7 51   11 4 40.2 101.05   -8 Mainly Clear
17:00 -6.5 -15.1 50   13 4 40.2 101.05   -8 Mainly Clear
18:00 -8.2 -15.1 58   18 6 40.2 101.06   -11 Mainly Clear
19:00 -10.6 -15.0 70   19 6 24.1 101.08   -14 Mainly Clear
20:00 -13.2 -16.3 77   17 6 24.1 101.06   -17 Mainly Clear
21:00 -12.0 -15.3 76     0 24.1 101.11     Mainly Clear
22:00 -12.6 -15.5 79   11 4 24.1 101.05   -15 Mostly Cloudy
23:00 -13.4 -16.0 81   14 6 24.1 100.99   -17 Mostly Cloudy

Notes on Data Quality.

Legend

  • E = Estimated
  • M = Missing
  • NA = Not Available*
  • [empty] = Indicates an unobserved value
Date modified: